CZ-6A DEB, 56613

Orbit data source: Space-Track

CZ-6A DEB, 56613 is space debris in SSO originally from a launch on Fri, 11 Nov 2022 UTC launched from the Taiyaun Space Center, China (TSC). Debris objects in space refer to the collection of defunct objects orbiting the Earth. Examples of debris include non-operational satellites, rocket bodies, and fragments generated from explosions, collisions, or faulty payload assembly.

Loading next visibility...
Identifier
56613, 2022-151AEM
Orbit
SSO
Country
Flag of CNCN / PRC
Related business
Manufacturer
SAST
Mission
Spacecraft
Bus & Motor
Unknown
Mass
Unknown
Launch date (UTC)
2022-11-11 (4 years ago)
Launch vehicle
Unknown
Launch site
Taiyaun Space Center, China (TSC)
Object type
Payload
Rocket body
Debris
Shape & HBR
Unknown shape, 0.1 m
Radar Cross Section
Medium (>0.1 m² and <1 m²)

Expand to show TLE details & history
Last TLE update: 2 days ago

TLE from 2 days ago
0 CZ-6A DEB
1 56613U 22151AEM 26207.35083556  .00001099  00000-0  51118-3 0  9992
2 56613  98.8017 232.4280 0003287 154.6158 205.5182 14.22635582173795
Epoch: 2026-07-26T08:25Z
TLE epoch observation values (Epoch: 2026-07-26T08:25:12.192Z)
Latitude
0.00002°
Longitude
162.07718°
Altitude
821.503 km
Speed
7.441 km/s
True Right ascension
15h 29m 42s
True Declination
0° 00' 00"
Sunlit
Object was in daylight at epoch
Visualization orbit readout
Latitude
Unknown
Longitude
Unknown
Altitude
Unknown
Speed
Unknown
Apparent Right ascension
Unknown
Apparent Declination
Unknown
Sunlit
N/A
Visualization observer readout
Local Sidereal Time
13:25:19
Azimuth
Unknown
Elevation
Unknown
Doppler factor
Unknown
Orbital elements
Apogee altitude
815.977 km
Perigee altitude
811.249 km
Semi-major axis
7,191.75 km
Eccentricity
0.00033
Inclination
98.8017°
RAAN
232.428°
Arg. of periapsis
154.6158°
True anomaly
205.50198°
Mean anomaly
205.5182°
Eccentric anomaly
205.51009°
Mean motion
3.5587 °/min
Orbital period
101.16 mins
BSTAR
0.00051118
Loading maneuver chart data...
Computing Atmospheric mass density...
Loading historical data...
Loading historical data...
Loading historical data...
Loading historical data...
Loading historical data...
Loading historical data...
Loading historical data...

Documentation

Showing up to 5 results
|